Погода в Маце

Поиск расширенной информации на нашем сайте:

Полезная информация:

Новости сайта



02.01.2020
Опубликован Долгосрочный прогноз погоды по городам России и ближнего зарубежья на январь 2020 года.
Карты: Прогноз на январь и февраль 2020 года, Сравнение прогнозируемой аномалии приземной температуры воздуха на январь 2020 года по разным моделям.




Погода в Маце - сегодня

Время (UTC), дата Ветер
(°,м/с) 
Видим.   Явления Облачность Т
(°С)
Тd
(°С)
f(%) Тe
(°С)
Pmin
(гПа)
dP
(гПа)
Po
(мм)
O2
(г/м3)
Тmin Tmax R s Состояние
почвы
06 20.11.20 170 (Ю) 20000 м  {туман}  4/0 верхняя 
[Ci fib]
-20.2 -21.4 90 -20  1028.8  755  330           
12 20.11.20 160 (Ю) 50000 м    10/0 верхняя 
[Ci]
-21.7 -22.9 90 -22  1028.9  755  332    -19.5  0.0     
18 20.11.20 190 (Ю) н/о    н/о 
-19.4 -51.6 4 -20  1028.7  755  329           
00 21.11.20 240 (ЮЗ) 20000 м    9/0 средняя 
[Ac trans]
-13.5 -13.5 100 -16  1025.5  753  320  -22.3    0.0  15  равномерный
сухой снег
100% 
06 21.11.20 220 (ЮЗ) 20000 м  осадки на расстоянии  10/5 600 м кучево-дожд., средняя, верхняя 
[Cb cap|Ac cuf|Ci ing]
-9.8 -17 56 -12  1021.8  750  315           
12 21.11.20 130 (ЮВ) 10 км  слаб. снег  10/0 средняя 
[Ac As]
-10.3 -13.9 75 -12  1017.8  747  314    -9.1  0.2     
18 21.11.20 190 (Ю) н/о    н/о 
-1    743  299           
00 22.11.20 190 (Ю) 4000 м  слаб. снег  10/0 средняя 
[Ac As]
-7.7 -11.7 73 -9  1007.5  740  308  -10.5    0.3  15  равномерный
сухой снег
100% 
06 22.11.20 250 (З) 10 км  слаб. ливневой снег  9/5 600 м кучево-дожд., средняя 
[Cb cap|Ac cuf]
-4.1 -8.7 70 -8  1003.1  737  302           
12 22.11.20 330 (СЗ) 2{11}  4000 м  слаб. ливневой снег  9/6 600 м кучево-дожд., средняя 
[Cb cap|Ac cuf]
-4.2 -5.4 91 -5  1005.9  739  303    -2.8     
18 22.11.20 300 (СЗ) н/о    н/о 
-1.9 -38.9 4 -5  1008.1  741  302           
00 23.11.20 320 (СЗ) 5{11}  10 км  слаб. ливневой снег  9/5 600 м кучево-дожд., средняя 
[Cb cap|Ac cuf]
-2 -5.9 75 -5  1008.5  741  301  -4.4    0.0  17  равномерный
сухой снег
100% 
06 23.11.20 330 (СЗ) 4{13}  10 км  слаб. ливневой снег  9/6 600 м кучево-дожд., средняя 
[Cb cap|Ac cuf]
-4.4 -9.5 68 -8  1012.6  744  306           
12 23.11.20 310 (СЗ) 50000 м  {ливн. осадки}  3/0 верхняя 
[Ci fib]
-8 -12.1 72 -8  1015.8  746  311    -1.8  0.2     
18 23.11.20 тихо ()   н/о    н/о 
-17.3 -50 4 -17  1021.8  750  324           
00 24.11.20 340 (С) 50000 м    4/0 верхняя 
[Ci fib]
-18.3 -18.9 95 -19  1023.7  751  326  -18.5    0.0  17  равномерный
сухой снег
100% 
18 24.11.20 300 (СЗ) н/о    н/о 
-11.6 -45.9 4 -11  1031.8  757  321           
00 25.11.20 310 (СЗ) 2{10}  50000 м  {снег}  10/0 средняя 
[Ac As]
-12.7 -16.2 75 -15  1033.1  758  322  -16.1    0.5  18  равномерный
сухой снег
100% 
06 25.11.20 300 (СЗ) 20000 м    10/0 верхняя 
[Ci]
-11.8 -17.1 65 -15  1034.3  759  321           
12 25.11.20 290 (З) 10 км  слаб. снег  10/0 верхняя 
[Cs]
-13.4 -16.1 80 -16  1026  760  324    -11.5  0.0     
18 25.11.20 340 (С) н/о    н/о 
-19.3 -51.5 4 -20  1038.3  762  332           
00 26.11.20 тихо ()   20000 м    10/0 средняя 
[Ac und]
-13.8 -15.1 90 -14  1037.7  762  325  -19.7    0.0  18  равномерный
сухой снег
100% 
06 26.11.20 320 (СЗ) 20000 м    10/10 1000 м 
[Sc]
-7.6 -13.6 62 -9  1037  762  317           
12 26.11.20 290 (З) 1{10}  50000 м    9/9 1000 м 
[Sc]
-8.8 -14.2 65 -9  1037.7  762  319    -7.1  0.0     
18 26.11.20 260 (З) н/о    н/о 
-10.5 -45.1 4 -12  1038.5  763  321           
Время (UTC), дата Ветер
(°,м/с) 
Видим.   Явления Облачность Т
(°С)
Тd
(°С)
f(%) Тe
(°С)
Pmin
(гПа)
dP
(гПа)
Po
(мм)
O2
(г/м3)
Тmin Tmax R s Состояние
почвы

Для получения пояснительной информации подведите курсор к названию столбца.

ПОГОДА в Маце - архив

Всё, что Вы хотите узнать о погоде в Маце - удобно и подробно!

Выберите нужную дату (начиная с 1 января 2019* года) и нажмите кнопку "Найти".
Будут отображены архивные сводки погоды по пункту Маца, начиная с указанной даты.


Отображать данные в формате CSV (для использования в таблицах Excel)


Внимание! Наш архив погоды предназначен исключительно для личного некоммерческого использования в познавательных целях. Если Вам необходимы официальные справки о состоянии погоды (для производственных, юридических, коммерческих и т.п. целей), обращайтесь в органы Росгидромета.

*Примечание: данная дата относится к архиву по метеостанциям СССР (Россия, СНГ, Балтия).
Архив по метеостанциям Зарубежной Европы и Азии (кроме Китая) хранится 10 дней, по другим регионам земного шара (Китай, Африка, Америка, Австралия, Океания) - 1 день.

Маца - район местоположения метеостанции


Название, широта, долгота, высота метеостанции:
Маца 59.9°ш. 117.6°д. 162 м над ур. моря [Российская Федерация]

Дополнительная информация

В oтличие oт бoльшинства пoгoдных сайтoв мы публикуем пoдрoбную метеoинфoрмацию в детальнoм прoфессиoнальнoм фoрмате.

Характеристики температуры и влажнoсти вoздуха измеряются на высoте 2 м в тени вдали oт зданий и деревьев.
Скoрoсть ветра измеряется на высoте 10 м (на урoвне рoста челoвека скoрoсть ветра ниже в 1.5-2 раза). Если метеoстанция нахoдится в гoрoде или в лесу, тo скoрoсть ветра занижена на 2-4 м/с пo сравнению с oткрытым местoм. Скoрoсть ветра над акватoриями крупных рек и oзёр, а также на вершинах хoлмoв на 2-5 м/с выше, чем в oбычных услoвиях.
Атмoсфернoе давление в разных тoчках местнoсти мoжет значительнo oтличаться oт давления на метеoстанции, в зависимoсти oт услoвий рельефа (при пoдъёме на 10 м давление пoнижается примернo на 1 мм рт.ст.).